User: anonymous
Location: Caltech
(34.1382°N, 118.1253°W)
Time: 16:29:33
(UTC-07:00)
Language:

CZ-4B DEB - Orbit

View from above orbital plane
View from above orbital plane
View from above satellite
View from above satellite

Ground track
Ground track

The orbit data is extracted from the following two-line orbital elements,

1 27433U 02024D   14110.48242324  .00000736  00000-0  42928-3 0  8042
2 27433 098.8209 077.1904 0015931 074.0855 073.5420 14.11514015614378
Epoch (UTC): 20 April 2014 11:34:41
Eccentricity: 0.0015931
inclination: 98.8209°
perigee height: 842 km
apogee height: 866 km
right ascension of ascending node: 77.1904°
argument of perigee: 74.0855°
revolutions per day: 14.11514015
mean anomaly at epoch: 73.5420°
orbit number at epoch: 61437

The dashed part of the orbit path shows where the satellite is in the earth's shadow,  

DLR